Total_Precipitation_Accumulation
3.01 3.24 3.26 3.42 3.33 3.35 3.19 2.96 2.60 2.46 2.33 2.09 1.89 1.88 1.87 1.80 1.87 1.95 2.08 2.15 2.19 2.45 2.89 3.16 3.13 3.05 3.09 3.08 3.16 3.16 3.07 2.96 2.84 2.67 2.53 2.43 2.40 2.45 2.45 2.54 2.46 2.36 2.29
3.50 3.59 3.64 3.74 3.54 3.38 3.35 3.18 2.84 2.65 2.48 2.34 2.05 1.89 1.90 2.11 2.05 1.98 2.13 2.21 2.17 2.25 2.61 3.09 3.38 3.52 3.61 3.66 3.54 3.30 3.23 3.17 3.17 3.04 2.86 2.64 2.55 2.45 2.38 2.48 2.59 2.49 2.43
4.07 3.95 4.08 4.10 3.87 3.64 3.59 3.52 3.36 3.01 2.78 2.72 2.52 2.26 2.14 2.20 2.28 2.38 2.39 2.41 2.44 2.41 2.59 2.90 3.22 3.47 3.67 3.89 3.82 3.58 3.40 3.38 3.42 3.38 3.26 2.98 2.82 2.65 2.57 2.51 2.54 2.60 2.44
4.58 4.61 4.44 4.21 4.05 3.88 3.84 3.96 3.69 3.34 3.22 3.22 3.01 2.62 2.31 2.38 2.48 2.48 2.49 2.54 2.70 2.59 2.64 2.66 2.84 3.11 3.42 3.73 3.91 3.95 3.83 3.78 3.68 3.56 3.45 3.33 3.20 3.02 2.80 2.75 2.64 2.59 2.50
4.71 4.83 4.76 4.57 4.39 4.28 4.20 3.89 3.82 3.65 3.59 3.49 3.04 2.80 2.47 2.37 2.46 2.39 2.45 2.54 2.77 2.83 2.80 2.60 2.72 3.07 3.30 3.60 3.91 4.18 4.29 4.24 4.02 3.91 3.81 3.73 3.60 3.37 3.10 2.91 2.80 2.72 2.68
5.11 5.11 4.93 4.80 4.73 4.65 4.51 4.28 4.19 4.03 3.76 3.58 3.12 2.88 2.63 2.39 2.35 2.35 2.31 2.40 2.48 2.51 2.58 2.60 2.65 2.60 2.89 3.26 3.66 4.06 4.42 4.68 4.46 4.14 3.96 3.98 3.91 3.65 3.47 3.28 3.11 2.99 2.94
5.53 5.44 5.30 5.16 4.93 4.73 4.60 4.47 4.27 4.05 3.71 3.59 3.45 3.14 2.70 2.34 2.29 2.26 2.17 2.24 2.28 2.24 2.35 2.44 2.64 2.59 2.47 2.79 3.05 3.50 3.97 4.53 4.74 4.59 4.34 4.24 4.15 3.93 3.69 3.46 3.35 3.30 3.19
6.11 5.88 5.85 5.57 5.20 4.94 4.64 4.41 4.20 3.88 3.54 3.52 3.55 3.63 3.15 2.72 2.18 1.85 1.89 1.92 1.92 1.94 2.05 2.19 2.32 2.41 2.34 2.43 2.47 2.78 3.17 3.56 4.07 4.38 4.40 4.32 4.19 4.00 3.81 3.65 3.47 3.44 3.49
6.17 5.76 5.56 5.47 5.18 4.68 4.38 4.22 4.01 3.81 3.57 3.44 3.37 3.62 3.38 2.96 2.47 2.11 1.85 1.71 1.74 1.86 1.93 2.06 2.12 2.13 2.09 2.12 2.15 2.30 2.49 2.65 3.13 3.68 3.99 4.01 3.96 3.81 3.72 3.73 3.71 3.61 3.55
5.77 5.37 5.12 4.86 4.60 4.26 4.04 3.77 3.68 3.67 3.61 3.42 3.32 3.09 2.85 2.69 2.71 2.47 2.13 1.90 1.83 1.84 1.81 1.79 1.84 1.92 1.97 2.00 2.06 2.06 2.13 2.23 2.52 2.89 3.26 3.45 3.49 3.48 3.43 3.41 3.43 3.45 3.53
5.14 4.66 4.35 4.08 3.84 3.58 3.38 3.17 3.13 3.22 3.25 3.17 3.14 3.05 2.91 2.79 2.64 2.51 2.38 2.29 2.17 1.99 1.85 1.79 1.78 1.78 1.78 1.83 1.87 1.90 2.03 2.01 2.09 2.27 2.53 2.75 2.90 3.05 3.14 3.20 3.23 3.33 3.47
4.40 4.00 3.63 3.37 3.09 2.88 2.73 2.65 2.58 2.58 2.70 2.74 2.78 2.78 2.77 2.85 2.78 2.75 2.57 2.43 2.36 2.18 2.01 1.90 1.82 1.78 1.72 1.78 1.85 2.03 1.91 1.95 2.03 2.02 2.09 2.22 2.33 2.54 2.73 2.94 3.09 3.29 3.53
3.37 3.12 2.84 2.64 2.41 2.32 2.31 2.36 2.35 2.34 2.38 2.41 2.49 2.57 2.58 2.57 2.59 2.77 2.89 2.69 2.44 2.17 2.06 1.92 1.79 1.77 1.73 1.78 1.81 1.86 1.70 1.66 1.70 1.72 1.83 1.96 2.05 2.19 2.35 2.49 2.63 2.81 3.03
2.34 2.24 2.19 2.00 1.92 1.94 1.92 2.01 2.04 2.09 2.16 2.15 2.11 2.28 2.40 2.32 2.28 2.40 2.65 2.73 2.61 2.33 2.06 1.88 1.72 1.66 1.66 1.65 1.76 1.74 1.55 1.60 1.53 1.49 1.49 1.59 1.70 1.80 1.93 2.04 2.19 2.30 2.40
1.99 1.88 1.85 1.82 1.77 1.80 1.78 1.81 1.80 1.74 1.84 1.91 1.90 2.02 2.12 2.07 2.02 2.03 2.18 2.37 2.53 2.46 2.07 1.73 1.63 1.57 1.55 1.55 1.64 1.40 1.42 1.51 1.43 1.35 1.31 1.30 1.42 1.51 1.58 1.61 1.70 1.81 1.97
1.90 1.79 1.70 1.67 1.61 1.55 1.54 1.66 1.68 1.64 1.64 1.63 1.64 1.75 1.82 1.79 1.82 1.79 1.84 1.95 2.15 2.30 2.13 1.63 1.46 1.42 1.49 1.37 1.42 1.26 1.31 1.34 1.24 1.17 1.09 1.06 1.08 1.23 1.30 1.29 1.34 1.44 1.60
1.66 1.60 1.42 1.38 1.36 1.31 1.33 1.44 1.50 1.53 1.53 1.50 1.44 1.43 1.48 1.55 1.67 1.60 1.63 1.71 1.86 2.03 2.07 1.69 1.48 1.45 1.49 1.49 1.47 1.42 1.27 1.15 1.09 1.10 1.01 1.00 0.98 1.01 1.10 1.11 1.13 1.17 1.30
1.45 1.42 1.34 1.23 1.17 1.20 1.31 1.33 1.29 1.31 1.36 1.36 1.34 1.33 1.33 1.41 1.51 1.55 1.55 1.54 1.64 1.79 1.91 1.83 1.62 1.49 1.46 1.47 1.47 1.47 1.22 1.01 0.97 1.07 1.03 0.97 0.98 0.95 0.98 1.02 1.03 1.04 1.03
1.30 1.28 1.28 1.25 1.22 1.17 1.20 1.19 1.18 1.22 1.27 1.30 1.31 1.28 1.25 1.36 1.39 1.40 1.41 1.42 1.46 1.48 1.62 1.61 1.44 1.38 1.33 1.33 1.47 1.46 1.36 1.31 0.95 0.90 0.94 0.88 0.92 0.91 0.89 0.91 0.93 0.95 0.90
1.20 1.12 1.13 1.17 1.16 1.12 1.10 1.09 1.09 1.20 1.31 1.26 1.18 1.19 1.21 1.20 1.20 1.27 1.27 1.35 1.44 1.53 1.56 1.54 1.40 1.29 1.30 1.33 1.56 1.63 1.54 1.38 1.16 0.84 0.87 0.83 0.84 0.83 0.83 0.89 0.85 0.85 0.88
1.18 1.16 1.12 1.10 1.08 1.04 0.99 1.02 1.03 1.05 1.19 1.20 1.17 1.14 1.09 1.09 1.08 1.10 1.08 1.18 1.34 1.50 1.55 1.57 1.47 1.36 1.35 1.51 1.54 1.47 1.45 1.33 1.17 0.96 0.96 0.88 0.90 1.08 1.29 1.36 1.16 0.93 0.89
1.15 1.18 1.17 1.12 1.03 0.92 1.00 1.01 0.95 0.98 1.09 1.13 1.15 1.12 1.03 0.97 0.90 0.91 0.87 0.93 1.11 1.31 1.49 1.62 1.54 1.45 1.38 1.48 1.59 1.53 1.57 1.57 1.43 1.12 1.14 1.06 1.07 1.45 1.85 2.03 1.62 1.07 0.94
1.11 1.17 1.18 1.18 1.08 0.99 1.04 0.99 0.97 0.94 1.03 1.15 1.20 1.17 0.98 0.84 0.93 0.90 0.90 0.88 0.91 0.99 1.24 1.54 1.66 1.53 1.48 1.57 1.72 1.70 1.70 1.70 1.60 1.32 1.39 1.37 1.31 1.60 1.63 1.73 1.67 1.26 1.13
1.11 1.20 1.25 1.20 1.10 1.01 1.02 0.98 0.96 0.91 0.92 1.01 1.06 1.09 1.16 1.16 1.03 0.98 0.92 0.94 0.99 1.04 1.09 1.17 1.40 1.43 1.32 1.38 1.57 1.63 1.67 1.64 1.55 1.49 1.54 1.61 1.45 1.55 1.46 1.77 1.95 1.76 1.55
1.11 1.16 1.16 1.18 1.15 1.07 0.99 0.94 0.98 0.92 0.87 0.85 0.85 0.91 1.01 1.07 1.03 0.95 0.93 1.03 1.10 1.13 0.99 1.07 1.14 1.28 1.34 1.28 1.29 1.40 1.63 1.81 1.79 1.56 1.50 1.61 1.59 1.63 1.73 2.04 2.04 2.00 1.88
1.10 1.09 1.12 1.16 1.15 1.10 0.92 0.80 0.86 0.83 0.85 0.83 0.89 0.92 0.91 0.88 0.93 0.88 0.91 1.09 1.18 1.14 1.21 1.37 1.51 1.59 1.53 1.44 1.30 1.38 1.67 1.89 1.91 1.81 1.54 1.68 1.81 1.96 2.24 2.30 2.18 1.97 1.92